Вернуться в каталог

OPS 9333

IDSCS 18

АктивенВоенныеMEO
NORAD 2864·PAYLOAD·🇺🇸 United States

Запущен Jul 1, 1967 с Cape Canaveral Space Force Station

Loading…

Ближайшие Пролёты (ближайшие 24 часа)

TLE

УстаревающийSource: Space-Track

Эпоха: Aug 30, 2026, 19:25 UTC

1  2864U 67066C   26242.80939602 -.00000075  00000-0  00000+0 0  9990
2  2864   2.9526  93.5945 0056682 239.5771 243.1637  1.09785855132361

Отслеживайте OPS 9333 в реальном времени с AllMySat

Download on the App Store